Regional Weather Roundup
Issued by NWS

Home | Current Version | Previous Version | Text Only | Print | Product List | Glossary On
Versions: 1 2 3 4 5 6 7 8 9 10 11 12 13 14 15 16 17 18 19 20 21 22 23 24 25 26 27 28 29 30 31 32 33 34 35 36 37 38 39 40 41 42 43 44 45 46 47 48 49 50
000
ASUS43 KDMX 280606
RWRIA

WEATHER ROUNDUP FOR IOWA
NATIONAL WEATHER SERVICE DES MOINES IA
100 AM CDT TUE MAR 28 2017

NOTE: "FAIR" INDICATES FEW OR NO CLOUDS BELOW 12,000 FEET WITH NO
SIGNIFICANT WEATHER AND/OR OBSTRUCTIONS TO VISIBILITY.

* - THESE STATIONS ARE NOT NWS STATIONS...THUS NOT UNDER NWS
QUALITY CONTROL.  THEY ALSO DO NOT REPORT WEATHER SUCH
AS PRECIPITATION OR FOG.

IAZ001>003-012>014-020>022-031>034-043>046-280700-
   NORTHWEST IOWA

CITY           SKY/WX    TMP DP  RH WIND       PRES   REMARKS
CARROLL *      CLOUDY    46  45  93 CALM      30.03R
CHEROKEE *     CLEAR     36  35  99 CALM      30.03S
DENISON *      CLOUDY    46  41  81 E3        30.05S
LE MARS *      CLEAR     34  34 100 CALM      30.05R FOG
ORANGE CITY *  CLEAR     39  37  93 CALM      30.04R
SHELDON *      CLEAR     32  32 100 CALM      30.03R
SIOUX CITY     CLEAR     37  36  96 CALM      30.04R
6HR MIN TEMP:  34; 6HR MAX TEMP:  54;

SPENCER        CLEAR     32  31  96 CALM      30.03R FOG
6HR MIN TEMP:  31; 6HR MAX TEMP:  49;

STORM LAKE *   CLEAR     43  41  93 CALM      30.03R
$$

IAZ055>058-069>071-079>083-090>094-280700-
   SOUTHWEST IOWA

CITY           SKY/WX    TMP DP  RH WIND       PRES   REMARKS
ATLANTIC *     CLOUDY    46  41  81 CALM      30.03S
AUDUBON *      CLOUDY    45  41  87 CALM      30.04S
CLARINDA *     CLOUDY    48  43  81 CALM      30.05S
COUNCIL BLFS * CLOUDY    43  41  93 E5        30.04R
CRESTON *      CLOUDY    45  41  87 N5        30.04S
HARLAN  *      CLOUDY    45  45 100 NE5       30.07S
LAMONI         CLOUDY    47  43  86 W3        30.02R
6HR MIN TEMP:  47; 6HR MAX TEMP:  50;

RED OAK *      CLOUDY    48  43  81 N6        30.03F
SHENANDOAH *   CLOUDY    46  43  87 NE5       30.04R
$$

IAZ047>049-059>061-072>074-084-280700-
   CENTRAL IOWA

CITY           SKY/WX    TMP DP  RH WIND       PRES   REMARKS
AMES           CLOUDY    47  43  86 CALM      30.02R
6HR MIN TEMP:  46; 6HR MAX TEMP:  48;

ANKENY *       CLOUDY    46  41  81 CALM      30.03S
BOONE *        CLOUDY    45  45 100 CALM      30.02R
CHARITON *     CLOUDY    46  45  93 CALM      30.02R
DES MOINES     CLOUDY    48  41  76 N3        30.03R
6HR MIN TEMP:  48; 6HR MAX TEMP:  51;

GRINNELL*      CLOUDY    45  42  88 N5        30.02R
MARSHALLTOWN   CLOUDY    45  43  93 N5        30.00S
6HR MIN TEMP:  45; 6HR MAX TEMP:  48;

NEWTON *       CLOUDY    45  41  87 CALM      30.01R
PELLA *        CLOUDY    46  42  88 N3        30.02S
PERRY *        CLOUDY    46  42  88 CALM      30.03R
$$

IAZ004>006-015-016-023>025-035-036-280700-
   NORTH CENTRAL IOWA

CITY           SKY/WX    TMP DP  RH WIND       PRES   REMARKS
ALGONA *       FOG       39  39 100 CALM      30.03R VSB 1
CLARION *      CLEAR     36  36 100 CALM      30.02S
ESTHERVILLE    CLEAR     34  34 100 NW5       30.03R FOG     WCI  30
6HR MIN TEMP:  33; 6HR MAX TEMP:  48;

FORT DODGE *   CLEAR     36  32  87 CALM      30.03R
MASON CITY     FOG       31  31 100 NW3       30.03R VSB 1/4
6HR MIN TEMP:  31; 6HR MAX TEMP:  46;

FOREST CITY *  FOG       32  28  86 CALM      30.03R VSB 1/2
WEBSTER CITY * FOG       39  39 100 CALM      30.01R VSB 1/4
IOWA FALLS *   CLOUDY    46  42  86 CALM      30.02S
$$

IAZ007>011-017>019-026>030-037>042-050>054-066-280700-
   NORTHEAST IOWA

CITY           SKY/WX    TMP DP  RH WIND       PRES   REMARKS
CEDAR RAPIDS   CLOUDY    46  46 100 NW5       29.99S
6HR MIN TEMP:  46; 6HR MAX TEMP:  50;

CHARLES CITY * CLOUDY    43  43 100 NE3       30.02S
CLINTON *      CLOUDY    47  45  93 NE6       30.00R
DECORAH *      CLOUDY    43  41  93 CALM      30.01S
DUBUQUE        CLOUDY    46  45  96 N3        30.00R FOG
6HR MIN TEMP:  46; 6HR MAX TEMP:  48;

MONTICELLO *   CLOUDY    46  45  93 CALM      30.00R
OELWEIN *      CLOUDY    45  45 100 N3        30.02R
WATERLOO       CLOUDY    45  41  86 CALM      30.01S
6HR MIN TEMP:  45; 6HR MAX TEMP:  48;

$$

IAZ064-065-067-068-078-280700-
   EAST CENTRAL IOWA

CITY           SKY/WX    TMP DP  RH WIND       PRES   REMARKS
DAVENPORT      CLOUDY    48  45  89 N6        29.99R
6HR MIN TEMP:  47; 6HR MAX TEMP:  50;

IOWA CITY      CLOUDY    50  45  83 CALM      30.01S
6HR MIN TEMP:  49; 6HR MAX TEMP:  52;

MUSCATINE *    CLOUDY    50  46  87 NW5       30.01R
QUAD CITIES    CLOUDY    50  44  80 N3        29.99R
6HR MIN TEMP:  50; 6HR MAX TEMP:  52;

$$

IAZ062-063-075>077-085>089-095>099-280700-
   SOUTHEAST IOWA

CITY           SKY/WX    TMP DP  RH WIND       PRES   REMARKS
BURLINGTON     CLOUDY    50  47  89 N6        29.98S
6HR MIN TEMP:  50; 6HR MAX TEMP:  51;

FAIRFIELD *    CLOUDY    48  48 100 CALM      30.00S FOG
FORT MADISON * CLOUDY    48  46  93 CALM      30.00S
KEOKUK *       CLOUDY    50  46  87 NW3       29.99S
OSKALOOSA *    CLOUDY    46  43  91 N5        30.01S
CENTERVILLE *  CLOUDY    46  45  93 CALM      30.02R
OTTUMWA        CLOUDY    48  45  89 N3        30.00S
6HR MIN TEMP:  48; 6HR MAX TEMP:  50;

WASHINGTON *   CLOUDY    48  48 100 NW5       30.01S FOG
$$

ABBREVIATIONS USED IN REMARKS
   TC - TEMPERATURES IN CELSIUS
  WCI - WIND CHILL INDEX
   HX - HEAT INDEX
  VSB - VISIBILITY
$$




USA.gov is the U.S. government's official web portal to all federal, state and local government web resources and services.